SKYSAT-C10

Last updated on Sun Oct 19 2025 00:02:30 GMT+0000 (Coordinated Universal Time)

1 42988U 17068B 25291.27501299 .00017428 00000+0 55693-3 0 9999 2 42988 97.4211 61.9985 0001546 86.6618 273.4801 15.32515023445304
UTC large
Height (km)
Speed (km/s)
/
Latitude / Longitude
Inclination (degrees)
Orbital Period (minutes)
Azimuth
Elevation
Range (km)
Doppler Factor

Next 0 passes for location: London (51.5072 / 0.1276)

Sorry there are no passes over London.